1
0
ARSSat-1 does not have a catalog number as of the date of this email. One will
be assigned by Air Force Space command in the near future. As soon as I can
determine the Catalog Number, I will included ARSSat-1 in the weekly AMSAT KEPs.
Until then, the KEPs for the ISS (Cat # 25544) will be adequate. There is not
enough separation, at this time, between ISS and ARSSat-1 to make a big
difference.
By the way, the FM signal is very strong on an overhead pass and pretty good at
AOS.
Ray Hoad, Wa5QGD
AMSAT Orbital Data Manager
1
0
SB KEPS @ AMSAT $ORB11216.N
2Line Orbital Elements 11216.AMSAT
HR AMSAT ORBITAL ELEMENTS FOR AMATEUR SATELLITES IN NASA FORMAT
FROM WA5QGD FORT WORTH,TX August 4, 2011
Send Subscribe/unsubscribe to KEPS at http://www.amsat.org/mailman/listinfo/keps
BID: ORB11216.N
DECODE 2-LINE ELSETS WITH THE FOLLOWING KEY:
1 AAAAAU 00 0 0 BBBBB.BBBBBBBB .CCCCCCCC 00000-0 00000-0 0 DDDZ
2 AAAAA EEE.EEEE FFF.FFFF GGGGGGG HHH.HHHH III.IIII JJ.JJJJJJJJKKKKKZ
KEY: A-CATALOGNUM B-EPOCHTIME C-DECAY D-ELSETNUM E-INCLINATION F-RAAN
G-ECCENTRICITY H-ARGPERIGEE I-MNANOM J-MNMOTION K-ORBITNUM Z-CHECKSUM
TO ALL RADIO AMATEURS BT
AO-07
1 07530U 74089B 11215.56085080 -.00000027 00000-0 10000-3 0 01474
2 07530 101.3939 220.2343 0011623 185.5733 174.5215 12.53583334680123
FO-29
1 24278U 96046B 11215.90264978 -.00000006 00000-0 27766-4 0 06304
2 24278 098.5536 353.6120 0351269 133.5087 229.5812 13.52963587738910
SO-33
1 25509U 98061B 11215.68773335 .00000236 00000-0 33534-4 0 00283
2 25509 031.4384 335.6442 0354146 296.9884 059.4992 14.28436544667077
RS-22
1 27939U 03042A 11216.62561435 .00000103 00000-0 28344-4 0 5065
2 27939 097.8406 068.2966 0013217 187.2224 172.8789 14.63618392419428
VO-52
1 28650U 05017B 11216.63677579 .00000479 00000-0 66192-4 0 8633
2 28650 097.6377 257.5927 0026974 005.6526 354.4956 14.82131234337920
SO-67
1 35870U 09049F 11216.77769441 .00001553 00000-0 73188-4 0 931
2 35870 097.2775 258.5137 0001827 163.7092 308.3579 15.20927413104328
HO-68
1 36122U 09072B 11216.80771170 -.00000044 00000-0 00000 0 0 6203
2 36122 100.4119 276.8756 0007849 113.4175 246.7770 13.16287466 78634
UO-11
1 14781U 84021B 11215.93837164 .00000319 00000-0 49179-4 0 06294
2 14781 098.0025 272.4907 0008944 352.4102 007.6975 14.80008121472855
AO-16
1 20439U 90005D 11215.88716067 .00000010 00000-0 19379-4 0 2475
2 20439 098.3866 163.9178 0011627 025.8943 334.2818 14.31931253124449
LO-19
1 20442U 90005G 11215.88931001 -.00000002 00000-0 14797-4 0 01768
2 20442 098.3490 168.0891 0012337 019.9014 340.2645 14.32156167124625
AO-27
1 22825U 93061C 11215.89150186 -.00000017 00000-0 10162-4 0 8808
2 22825 098.5344 159.3668 0009025 131.2806 228.9151 14.29356235931000
IO-26
1 22826U 93061D 11215.88219588 .00000008 00000-0 20052-4 0 06480
2 22826 098.5260 159.8173 0009770 125.5314 234.6782 14.29619636931125
GO-32
1 25397U 98043D 11216.63260944 -.00000014 00000-0 11855-4 0 5452
2 25397 098.3291 206.6106 0001991 112.3666 247.7725 14.23214632678852
NO-44
1 26931U 01043C 11215.54205039 -.00000008 00000-0 29301-4 0 08174
2 26931 067.0484 221.5047 0006025 256.0774 103.9661 14.29670578513696
SO-50
1 27607U 02058C 11215.90148730 .00000087 00000-0 35283-4 0 05333
2 27607 064.5578 182.6784 0076803 311.1529 048.2977 14.71781883463111
CO-55
1 27844U 03031E 11215.57052424 .00000075 00000-0 54856-4 0 1672
2 27844 098.7071 223.5837 0010777 062.1446 298.0824 14.20829566419644
CO-57
1 27848U 03031J 11215.52131455 .00000086 00000-0 60402-4 0 1185
2 27848 098.7145 222.7416 0010830 067.4152 292.8162 14.20607415419583
AO-51
1 28375U 04025K 11216.58544931 .00000052 00000-0 28507-4 0 372
2 28375 098.1020 192.4956 0083318 284.1293 075.0651 14.40771110373031
CP3
1 31129U 07012N 11216.43929340 .00000467 00000-0 11716-3 0 9335
2 31129 097.8957 237.8605 0102601 032.1573 328.5834 14.52530785227841
CO-65
1 32785U 08021C 11216.68949136 .00000739 00000-0 99417-4 0 605
2 32785 097.8467 279.6493 0015273 022.1446 338.0400 14.82068261176724
PRISM
1 33493U 09002B 11216.71244532 .00000797 00000-0 10779-3 0 8340
2 33493 098.1296 346.0474 0018483 242.8921 117.0418 14.81814087136700
SOHLA-1
1 33496U 09002E 11215.91399433 .00000103 00000-0 25535-4 0 05003
2 33496 098.0843 325.2720 0006324 341.1771 018.9200 14.69639363135491
TISAT-1
1 36799U 10035E 11216.72728181 .00000596 00000-0 84528-4 0 1083
2 36799 098.0986 285.4541 0016475 118.0314 242.2556 14.80642500 57497
STUDSAT
1 36801U 10035G 11215.71727766 .00001532 00000-0 20538-3 0 02265
2 36801 098.1055 284.3323 0014612 109.6103 250.6685 14.80828345057330
RAX
1 37223U 0 11152.36844328 .00000635 00000-0 96781-4 0 01738
2 37223 071.9713 073.6151 0021634 311.5989 048.3343 14.77415682028541
OOREOS
1 37224U 10062C 11153.29456974 .00000492 00000-0 77478-4 0 01796
2 37224 071.9726 071.8135 0020315 307.7637 052.1684 14.77036357028673
FO-69
1 37227U 0 11213.85438999 .00000099 00000-0 22137-4 0 00969
2 37227 071.9710 298.5710 0017671 201.5443 158.4977 14.76618042016064
NANOSALD
1 37361U 0 11213.80704868 .00233371 00000-0 11917-1 0 03059
2 37361 071.9513 288.4936 0006681 342.6207 017.5346 15.15493526028998
FO-70
1 37380U 0 11213.87530366 .00000059 00000-0 16534-4 0 02302
2 37380 071.9744 298.6878 0018179 198.3721 161.6793 14.76383127037601
NOAA-10
1 16969U 86073A 11215.66350002 .00000091 00000-0 54643-4 0 05911
2 16969 098.6158 244.8005 0013162 086.6093 273.6579 14.27471407294425
NOAA-11
1 19531U 88089A 11215.86242253 .00000296 00000-0 17524-3 0 05898
2 19531 098.7526 302.4229 0011926 054.2452 305.9832 14.14921848179493
NOAA-12
1 21263U 91032A 11215.94906708 .00000064 00000-0 45805-4 0 00966
2 21263 098.7508 233.7085 0013379 050.0544 310.1809 14.25728713051213
MET-3/5
1 21655U 91056A 11215.84214398 .00000051 00000-0 10000-3 0 01755
2 21655 082.5569 017.0952 0014361 042.3289 317.8891 13.17029423959993
MET-2/21
1 22782U 93055A 11215.69358120 .00000044 00000-0 26686-4 0 01685
2 22782 082.5486 285.1910 0021755 329.5653 030.4262 13.83660805905129
OKEAN-4
1 23317U 94066A 11216.87613918 .00000341 00000-0 38853-4 0 6294
2 23317 082.5418 327.6715 0020916 322.7231 037.2531 14.83116807907764
NOAA-14
1 23455U 94089A 11215.94671850 -.00000024 00000-0 10616-4 0 05800
2 23455 098.8505 298.1052 0009713 139.4007 220.7888 14.13826446855829
NOAA-15
1 25338U 98030A 11215.70312877 .00000247 00000-0 12432-3 0 09062
2 25338 098.6577 201.2017 0010031 319.3325 040.7088 14.24938351687490
RESURS
1 25394U 98043A 11215.94991554 .00000011 00000-0 22493-4 0 08639
2 25394 098.3023 216.3458 0002394 081.0082 279.1369 14.24236152679106
FENGYUN1
1 25730U 99025A 11216.61245128 .00000472 00000-0 29835-3 0 3898
2 25730 098.8199 176.7477 0022437 175.6120 184.5244 14.08715454629882
OKEAN-0
1 25860U 99039A 11216.90880154 .00000122 00000-0 26096-4 0 3780
2 25860 097.8889 182.0252 0001057 107.7427 252.3897 14.73811044647830
NOAA-16
1 26536U 00055A 11215.74487709 -.00000168 00000-0 -65455-4 0 03886
2 26536 099.1368 247.2475 0009710 258.7558 101.2525 14.12633764560079
NOAA-17
1 27453U 02032A 11215.73584762 .00000026 00000-0 29058-4 0 03754
2 27453 098.3761 253.2570 0011982 015.2366 344.9174 14.24297316473426
NOAA-18
1 28654U 05018A 11215.66474441 -.00000106 00000-0 -33413-4 0 08542
2 28654 098.9992 166.9366 0014185 335.2604 024.7888 14.11496687319627
